STARLINK-4730, 53794

Orbit data source: Space-Track

STARLINK-4730, 53794 is a payload satellite owned by SpaceX/Seattle (US) in LEO that was launched on Sun, 11 Sep 2022 UTC via an FALCON 9 launch vehicle from the Air Force Eastern Test Range (AFETR). Payload-class satellites include a variety of spacecraft equipped with specific instruments for various scientific and technological missions. These include communications satellites like Starlink; space stations such as the ISS; scientific satellites like the Hubble; Earth observation satellites from companies like Planet Labs, Umbra, and HawkEye 360; GPS; miniature CubeSats for education and research; and military/defense satellites.

Loading next visibility...
Identifier
53794, 2022-111X
Orbit
LEO
Country
Flag of USUS
Related business
Manufacturer
SpaceX/Seattle
Mission
Operational Commercial Communications
Bus & Motor
STARLINK, Unknown motor
Mass
305 kg wet, ~290 kg dry
Launch date (UTC)
2022-09-11 (4 years ago)
Launch vehicle
FALCON 9
Launch site
Air Force Eastern Test Range (AFETR)
Object type
Payload
Rocket body
Debris
Shape & HBR
Box + 1 Pan, 10.1 m
Radar Cross Section
13.562 m², Large (>1 m²)

Expand to show TLE details & history
Last TLE update: 15 hours ago

TLE from 15 hours ago
0 STARLINK-4730
1 53794U 22111X   26236.25428384  .00000310  00000-0  21746-4 0  9998
2 53794  53.1599 232.9208 0001276  88.4542 271.6605 15.31697719219104
Epoch: 2026-08-24T06:06Z
TLE epoch observation values (Epoch: 2026-08-24T06:06:10.123Z)
Latitude
-0.00008°
Longitude
168.83993°
Altitude
471.622 km
Speed
7.631 km/s
True Right ascension
15h 31m 40s
True Declination
0° 00' 00"
Sunlit
Object was in daylight at epoch
Visualization orbit readout
Latitude
Unknown
Longitude
Unknown
Altitude
Unknown
Speed
Unknown
Apparent Right ascension
Unknown
Apparent Declination
Unknown
Sunlit
N/A
Visualization observer readout
Local Sidereal Time
12:11:07
Azimuth
Unknown
Elevation
Unknown
Doppler factor
Unknown
Orbital elements
Apogee altitude
471.877 km
Perigee altitude
470.129 km
Semi-major axis
6,849.14 km
Eccentricity
0.00013
Inclination
53.1599°
RAAN
232.9208°
Arg. of periapsis
88.4542°
True anomaly
271.64588°
Mean anomaly
271.6605°
Eccentric anomaly
271.65319°
Mean motion
3.82903 °/min
Orbital period
94.02 mins
BSTAR
0.000021746
Loading maneuver chart data...
Computing Atmospheric mass density...
Loading historical data...
Loading historical data...
Loading historical data...
Loading historical data...
Loading historical data...
Loading historical data...
Loading historical data...

Documentation

Showing up to 5 results
|